Location: Newark
(36.0797°N, 3.9744°E)
Time: 18:05:31
(UTC+00:00)

Vanguard 2 Rocket - Pass Details

Date: 12 December 2019
Orbit: 554 x 3326 km, 32.9° (Epoch: 26 January)

Event Time Altitude Azimuth Distance (km) Brightness Sun altitude
Rises 20:29:56 0° 274° (W) 5,685 11.7 -47.6°
Reaches altitude 10° 20:34:25 10° 272° (W) 4,217 10.8 -48.5°
Enters shadow 20:40:08 32° 263° (W) 2,302 9.1 -49.6°
Maximum altitude 20:44:29 63° 195° (SSW) 1,286 - -50.5°
Drops below altitude 10° 20:50:12 10° 114° (ESE) 2,452 - -51.6°
Sets 20:52:11 0° 111° (ESE) 3,189 - -52.0°
